Location: Unspecified
(0.0000°N, 0.0000°E)
Time: 20:33:44
(UTC+02:00)

NOAA 12 - Visible Passes

Search period start: 01 September 2014 00:00
Search period end: 11 September 2014 00:00
Orbit: 796 x 816 km, 98.7° (Epoch: 31 August)

Date Brightness Start Highest point End Pass type
(mag) Time Alt. Az. Time Alt. Az. Time Alt. Az.
01 Sep 5.2 20:26:58 10° SE 20:31:03 23° ENE 20:35:06 10° NNE visible
01 Sep 6.3 22:06:39 10° SSW 22:10:34 22° WSW 22:14:29 10° NW visible
02 Sep 5.2 21:40:54 10° S 21:45:50 43° WSW 21:50:44 10° NNW visible
03 Sep 4.0 21:15:50 10° SSE 21:21:05 87° WSW 21:26:17 10° NNW visible
04 Sep 4.3 20:51:19 10° SSE 20:56:19 47° ENE 21:01:17 10° N visible
04 Sep 7.1 22:35:34 10° WSW 22:35:48 10° WSW 22:36:03 10° W visible
05 Sep 5.1 20:27:28 10° SE 20:31:34 24° ENE 20:35:39 10° NNE visible
05 Sep 6.3 22:07:12 10° SSW 22:11:05 21° WSW 22:14:58 10° NW visible
06 Sep 5.2 21:41:26 10° S 21:46:21 42° WSW 21:51:15 10° NNW visible
07 Sep 4.0 21:16:21 10° S 21:21:36 85° WSW 21:26:48 10° NNW visible
08 Sep 4.3 20:51:50 10° SSE 20:56:50 47° ENE 21:01:49 10° N visible
09 Sep 5.1 20:27:58 10° SE 20:32:05 24° ENE 20:36:11 10° NNE visible
09 Sep 6.4 22:07:45 10° SSW 22:11:36 21° WSW 22:15:27 10° NW visible
10 Sep 5.2 21:41:58 10° S 21:46:52 42° WSW 21:51:45 10° NNW visible
